Current Version              Previous Version:    01  02  03  04  05  06  07  08  09  10  11  12  13  14  15  16  17  18  19  20  21  22  23  24  25  26  27  28  29  30  
   31  32  33  34  35  36  37  38  39  40  41  42  43  44  45  46  47  48  49  50  51  52  53  54  55  56  57  58  59  60  

[Printable]
791
ASUS44 KFWD 291810
RWRTX
NORTH TEXAS HOURLY WEATHER ROUNDUP
NATIONAL WEATHER SERVICE FORT WORTH TX
100 PM CDT TUE JUL 29 2014

NOTE: "FAIR" INDICATES FEW OR NO CLOUDS BELOW 12,000 FEET WITH NO
SIGNIFICANT WEATHER AND/OR OBSTRUCTIONS TO VISIBILITY.

TXZ118-119-291900-
DALLAS/FORT WORTH METROPLEX

CITY           SKY/WX    TMP DP  RH WIND       PRES   REMARKS
DFW AIRPORT    CLOUDY    85  61  44 SW9       30.16R
6HR MIN TEMP:  76; 6HR MAX TEMP:  85;

DALLAS LOVE    CLOUDY    85  62  46 VRB3      30.15S
6HR MIN TEMP:  76; 6HR MAX TEMP:  85; 6HR PCP: TRACE;

FTW MEACHAM    CLOUDY    80  65  59 SW3       30.17F
6HR MIN TEMP:  77; 6HR MAX TEMP:  82; 6HR PCP:  0.03;

DAL-EXECUTIVE  CLOUDY    84  63  49 S3        30.15F
6HR MIN TEMP:  77; 6HR MAX TEMP:  85;

FTW-ALLIANCE   CLOUDY    77  64  64 SW10      30.17F
6HR MIN TEMP:  73; 6HR MAX TEMP:  79; 6HR PCP: TRACE;

FTW-NAS-JRB    CLOUDY    82  64  54 NW5       30.22S
6HR MIN TEMP:  79; 6HR MAX TEMP:  83;

FTW-SPINKS     LGT RAIN  79  66  65 SE5       30.19F
ARLINGTON      CLOUDY    80  64  58 W6        30.17S
6HR MIN TEMP:  77; 6HR MAX TEMP:  81; 6HR PCP: TRACE;

GRAND PRAIRIE  SUNNY     82  61  47 S9        30.17F
ADDISON        CLOUDY    84  59  42 SW5       30.16S
MESQUITE       SUNNY     84  61  45 S5        30.15S
LANCASTER      CLOUDY    82  62  49 SW3       30.16F
6HR MIN TEMP:  72; 6HR MAX TEMP:  82;

$$

TXZ091>094-102>105-117-120-121-131>134-291900-
NORTH CENTRAL TEXAS

CITY           SKY/WX    TMP DP  RH WIND       PRES   REMARKS
SHRMAN/DENISON PTSUNNY   87  59  38 S6        30.17S
6HR MIN TEMP:  73; 6HR MAX TEMP:  87;

GAINESVILLE    CLOUDY    82  61  49 S6        30.19R
6HR MIN TEMP:  71; 6HR MAX TEMP:  83;

BOWIE          CLOUDY    76  68  75 S5        30.18F
6HR MIN TEMP:  71; 6HR MAX TEMP:  76;

BRIDGEPORT     CLOUDY    71  61  71 CALM      30.20F
6HR MIN TEMP:  70; 6HR MAX TEMP:  77;

DECATUR        CLOUDY    74  66  76 SW7       30.20S
6HR MIN TEMP:  72; 6HR MAX TEMP:  76;

DENTON         CLOUDY    79  64  60 W8        30.17S
6HR MIN TEMP:  71; 6HR MAX TEMP:  80; 6HR PCP: TRACE;

MCKINNEY       CLOUDY    85  59  41 S3        30.15S
6HR MIN TEMP:  70; 6HR MAX TEMP:  85;

ROCKWALL       CLOUDY    84  64  52 W3        30.14S
6HR MIN TEMP:  71; 6HR MAX TEMP:  85;

TERRELL        CLOUDY    88  59  37 SW6       30.14F
6HR MIN TEMP:  72; 6HR MAX TEMP:  90;

WAXAHACHIE     CLOUDY    78  64  60 CALM      30.18S
6HR MIN TEMP:  74; 6HR MAX TEMP:  79;

CLEBURNE       CLOUDY    81  64  57 NE7       30.19F
GRANBURY       RAIN      74  69  85 CALM      30.19S
6HR MIN TEMP:  73; 6HR MAX TEMP:  81;

$$

TXZ083>090-098>101-113>116-127>130-139>142-154-155-291900-
WESTERN NORTH TEXAS

CITY           SKY/WX    TMP DP  RH WIND       PRES   REMARKS
WICHITA FALLS  CLOUDY    77  62  59 S14       30.17F
6HR MIN TEMP:  72; 6HR MAX TEMP:  78;

WF-KICKAPOO    CLOUDY    75  59  56 S12       30.19F
6HR MIN TEMP:  73; 6HR MAX TEMP:  77;

VERNON         PTSUNNY   74  65  75 S3        30.20F
6HR MIN TEMP:  68; 6HR MAX TEMP:  80; 6HR PCP:  0.19;

ABILENE        MOSUNNY   89  66  46 E7        30.16F HX  91
6HR MIN TEMP:  72; 6HR MAX TEMP:  89;

ABILENE-DYESS  PTSUNNY   89  67  49 VRB3      30.14F HX  91
6HR MIN TEMP:  72; 6HR MAX TEMP:  89;

BRECKENRIDGE   MOSUNNY   89  57  34 E15G21    30.16F HAZE
6HR MIN TEMP:  76; 6HR MAX TEMP:  89;

GRAHAM         PTSUNNY   76  61  60 E9G16     30.17F
6HR MIN TEMP:  67; 6HR MAX TEMP:  77;

MINERAL WELLS  CLOUDY    72  66  81 E9        30.17F
6HR MIN TEMP:  68; 6HR MAX TEMP:  76; 6HR PCP:  0.15;

STEPHENVILLE   MOSUNNY   81  61  49 E12       30.21S
6HR MIN TEMP:  74; 6HR MAX TEMP:  83;

COMANCHE       MOSUNNY   89  65  45 E9        30.16F HX  90
6HR MIN TEMP:  69; 6HR MAX TEMP:  89;

BROWNWOOD      PTSUNNY   88  66  48 E8        30.14F HX  90
COLEMAN        SUNNY     89  65  44 S3        30.15F HX  90
6HR MIN TEMP:  69; 6HR MAX TEMP:  89;

BRADY          MOSUNNY   90  66  45 CALM      30.14F HX  92
$$

TXZ143>147-156>162-174-175-291900-
CENTRAL TEXAS

CITY           SKY/WX    TMP DP  RH WIND       PRES   REMARKS
WACO           PTSUNNY   89  69  51 NE13      30.13F HX  93
6HR MIN TEMP:  73; 6HR MAX TEMP:  90;

WACO-TSTC      MOSUNNY   84  68  58 NE7       30.14S
WACO-MCGREGOR  PTSUNNY   90  68  48 NE8       30.14S HX  93
6HR MIN TEMP:  73; 6HR MAX TEMP:  90;

HILLSBORO      CLOUDY    81  65  58 N7        30.17S
6HR MIN TEMP:  74; 6HR MAX TEMP:  81;

CORSICANA      LGT RAIN  84  68  58 CALM      30.15F
6HR MIN TEMP:  72; 6HR MAX TEMP:  85; 6HR PCP: TRACE;

MEXIA          RAIN      77  73  86 N3        30.13F
6HR MIN TEMP:  74; 6HR MAX TEMP:  81;

HEARNE         LGT RAIN N/A N/A N/A CALM      30.11S
CAMERON        CLOUDY    89  71  55 E5        30.10F HX  96
TEMPLE         PTSUNNY   91  70  49 NE12      30.12F HX  97
6HR MIN TEMP:  72; 6HR MAX TEMP:  91;

KILLEEN        PTSUNNY   88  70  55 NE5       30.12F HX  92
KILLEEN-SKYLRK MOSUNNY   88  70  55 E7        30.11F HX  92
6HR MIN TEMP:  73; 6HR MAX TEMP:  90;

FORT HOOD      PTSUNNY   92  70  48 E6        30.12F HX  97
6HR MIN TEMP:  75; 6HR MAX TEMP:  92;

GATESVILLE     MOSUNNY   90  70  51 E8        30.14F HX  95
HAMILTON       MOSUNNY   87  66  49 E10G20    30.16F HX  90
6HR MIN TEMP:  72; 6HR MAX TEMP:  88;

LAMPASAS       PTSUNNY   91  73  55 CALM      30.12F HX  99
6HR MIN TEMP:  73; 6HR MAX TEMP:  91;

$$

TXZ095>097-106>112-122>126-135>138-148>153-164>167-291900-
EAST TEXAS

CITY           SKY/WX    TMP DP  RH WIND       PRES   REMARKS
PARIS          MOSUNNY   86  63  45 CALM      30.15F
6HR MIN TEMP:  68; 6HR MAX TEMP:  88;

SULPHUR SPRNGS PTSUNNY   86  62  43 CALM      30.16S
6HR MIN TEMP:  71; 6HR MAX TEMP:  86;

CLARKSVILLE    MOSUNNY   87  60  41 CALM      30.13F
6HR MIN TEMP:  70; 6HR MAX TEMP:  87;

MOUNT PLEASANT MOSUNNY   87  60  40 NE3       30.14F
6HR MIN TEMP:  69; 6HR MAX TEMP:  87;

GILMER         MOSUNNY   88  64  45 CALM      30.14F
MINEOLA        PTSUNNY   84  63  48 CALM      30.14F
TYLER          MOSUNNY   88  62  41 VRB5      30.12F
6HR MIN TEMP:  75; 6HR MAX TEMP:  89;

LONGVIEW       SUNNY     88  64  44 VRB6      30.11F
6HR MIN TEMP:  75; 6HR MAX TEMP:  89;

MARSHALL       SUNNY     89  66  46 CALM      30.12F HX  91
6HR MIN TEMP:  76; 6HR MAX TEMP:  89;

ATHENS         PTSUNNY   84  70  61 CALM      30.11F
JACKSONVILLE   PTSUNNY   85  70  62 E5        30.15F
HENDERSON      SUNNY     86  66  50 S5        30.13F
6HR MIN TEMP:  73; 6HR MAX TEMP:  86;

NACOGDOCHES    PTSUNNY   86  70  58 SE3       30.12F HX  90
6HR MIN TEMP:  73; 6HR MAX TEMP:  86;

LUFKIN         PTSUNNY   89  73  59 VRB3      30.11F HX  97
6HR MIN TEMP:  76; 6HR MAX TEMP:  89;

$$

SUPPLEMENTAL OBSERVATIONS (CENTRAL)

CITY           SKY/WX    TMP DP  RH WIND       PRES   REMARKS
CADDO GRASSLND   N/A     90  63  40 W3          N/A  HX  90
PAT MAYSE LAKE   N/A     84  61  45 S3          N/A
GREENVILLE       N/A     90  63  40 E2          N/A  HX  90
CEDAR HILL       N/A     82  64  54 S5          N/A
PALESTINE        N/A     88  75  66 E5          N/A  HX  97
MCGREGOR         N/A     90  68  48 E8          N/A  HX  93
TEMPLE           N/A     90  70  51 E7          N/A  HX  95
$$

SUPPLEMENTAL OBSERVATIONS (WEST)

CITY           SKY/WX    TMP DP  RH WIND       PRES   REMARKS
MILLERS CREEK    N/A     88  63  42 SE15        N/A
POSSUM KINGDOM   N/A     82  57  42 E13G23      N/A